WOA395 RKSI-PANC

Flight info

Callsign WOA395
Flight time N/A
Altitude 35000
Route EGOBA2H EGOBA Y697 KAE Y437 TENAS L512 GTC Y512 OATIS OTR3 PUTER A590 HAMND NEELL7
Aircraft MD11/H-SDE1E2E3FGHIJ3J7M3P2RWXYZ/LB1D1

Departure

Time 2026-05-07 07:39
Airport Incheon International Airport (RKSI)

Arrival

Time N/A
Airport Ted Stevens Anchorage International Airport (PANC)
Time Latitude Longitude Altitude Speed Heading
2026-05-07 07:07 37.47169 126.45852 40 ft 0 kts 144°
2026-05-07 07:16 37.47186 126.45837 40 ft 4 kts 141°
2026-05-07 07:17 37.47206 126.45818 40 ft 3 kts 161°
2026-05-07 07:17 37.47227 126.45810 38 ft 4 kts 160°
2026-05-07 07:17 37.47252 126.45798 37 ft 4 kts 165°
2026-05-07 07:17 37.47264 126.45795 40 ft 0 kts 169°
2026-05-07 07:31 37.47263 126.45795 40 ft 1 kts 169°
2026-05-07 07:31 37.47243 126.45786 40 ft 4 kts 216°
2026-05-07 07:31 37.47217 126.45743 39 ft 9 kts 232°
2026-05-07 07:32 37.47165 126.45653 39 ft 15 kts 234°
2026-05-07 07:32 37.47108 126.45544 40 ft 14 kts 250°
2026-05-07 07:32 37.47137 126.45446 40 ft 12 kts 321°
2026-05-07 07:32 37.47212 126.45376 40 ft 15 kts 324°
2026-05-07 07:33 37.47304 126.45292 40 ft 18 kts 324°
2026-05-07 07:33 37.47413 126.45193 40 ft 21 kts 324°
2026-05-07 07:33 37.47518 126.45102 38 ft 15 kts 326°
2026-05-07 07:33 37.47589 126.45043 38 ft 9 kts 325°
2026-05-07 07:34 37.47626 126.45009 40 ft 6 kts 323°
2026-05-07 07:34 37.47679 126.44961 38 ft 18 kts 324°
2026-05-07 07:34 37.47802 126.44850 40 ft 20 kts 323°
2026-05-07 07:34 37.47898 126.44760 40 ft 14 kts 324°
2026-05-07 07:35 37.47957 126.44707 40 ft 7 kts 324°
2026-05-07 07:35 37.47985 126.44682 39 ft 5 kts 326°
2026-05-07 07:35 37.48030 126.44644 40 ft 12 kts 326°
2026-05-07 07:35 37.48127 126.44559 40 ft 22 kts 324°
2026-05-07 07:36 37.48256 126.44444 39 ft 22 kts 325°
2026-05-07 07:36 37.48381 126.44336 38 ft 21 kts 325°
2026-05-07 07:36 37.48474 126.44240 40 ft 12 kts 296°
2026-05-07 07:36 37.48461 126.44179 38 ft 4 kts 237°
2026-05-07 07:37 37.48446 126.44154 38 ft 6 kts 233°
2026-05-07 07:37 37.48407 126.44088 40 ft 10 kts 233°
2026-05-07 07:37 37.48371 126.44052 38 ft 2 kts 183°
2026-05-07 07:37 37.48338 126.44068 38 ft 8 kts 148°
2026-05-07 07:38 37.48312 126.44091 40 ft 0 kts 144°
2026-05-07 07:39 37.48011 126.44366 40 ft 106 kts 145°
2026-05-07 07:39 37.47171 126.45109 95 ft 178 kts 148°
2026-05-07 07:39 37.46195 126.46110 1048 ft 184 kts 138°
2026-05-07 07:39 37.45516 126.47524 2010 ft 195 kts 109°
2026-05-07 07:40 37.45081 126.49198 2991 ft 206 kts 108°
2026-05-07 07:40 37.44572 126.51008 3620 ft 241 kts 111°
2026-05-07 07:40 37.43887 126.53132 3762 ft 280 kts 114°
2026-05-07 07:40 37.43051 126.55460 4499 ft 295 kts 115°
2026-05-07 07:41 37.42146 126.57812 5798 ft 302 kts 117°
2026-05-07 07:41 37.41181 126.60210 6954 ft 310 kts 119°
2026-05-07 07:41 37.40190 126.62620 8036 ft 318 kts 120°
2026-05-07 07:41 37.39137 126.65119 8981 ft 331 kts 122°
2026-05-07 07:42 37.38039 126.67652 9333 ft 329 kts 123°
2026-05-07 07:42 37.36932 126.70175 9732 ft 330 kts 123°
2026-05-07 07:42 37.35814 126.72736 9948 ft 335 kts 123°
2026-05-07 07:42 37.34688 126.75301 9985 ft 336 kts 124°
2026-05-07 07:43 37.33546 126.77866 9997 ft 336 kts 124°
2026-05-07 07:43 37.32424 126.80397 10003 ft 335 kts 124°
2026-05-07 07:43 37.31290 126.82967 10007 ft 337 kts 124°
2026-05-07 07:43 37.30085 126.85677 10029 ft 374 kts 124°
2026-05-07 07:44 37.28964 126.88740 10004 ft 389 kts 110°
2026-05-07 07:44 37.28606 126.92140 10007 ft 397 kts 92°
2026-05-07 07:44 37.28791 126.95566 10006 ft 400 kts 84°
2026-05-07 07:44 37.29167 126.99021 10015 ft 399 kts 83°
2026-05-07 07:45 37.29579 127.02470 10003 ft 399 kts 82°
2026-05-07 07:45 37.29977 127.05935 10002 ft 400 kts 83°
2026-05-07 07:45 37.30342 127.09394 10005 ft 400 kts 84°
2026-05-07 07:45 37.30829 127.12804 9998 ft 400 kts 77°
2026-05-07 07:46 37.31585 127.16182 10001 ft 401 kts 73°
2026-05-07 07:46 37.32449 127.19519 10004 ft 401 kts 71°
2026-05-07 07:46 37.33405 127.22806 10003 ft 398 kts 65°
2026-05-07 07:46 37.34979 127.25637 10540 ft 390 kts 40°
2026-05-07 07:47 37.37035 127.27834 11624 ft 395 kts 33°
2026-05-07 07:47 37.39305 127.29874 12564 ft 404 kts 30°
2026-05-07 07:47 37.41651 127.31867 13520 ft 410 kts 29°
2026-05-07 07:47 37.44045 127.33901 14409 ft 417 kts 30°
2026-05-07 07:48 37.46432 127.36046 15179 ft 426 kts 34°
2026-05-07 07:48 37.48502 127.38761 15938 ft 438 kts 53°
2026-05-07 07:48 37.49881 127.42169 16669 ft 447 kts 71°
2026-05-07 07:48 37.50663 127.45986 17422 ft 454 kts 80°
2026-05-07 07:49 37.51176 127.49954 18085 ft 460 kts 83°
2026-05-07 07:49 37.51636 127.54017 18802 ft 465 kts 83°
2026-05-07 07:49 37.52131 127.58068 19359 ft 472 kts 82°
2026-05-07 07:49 37.52689 127.62164 19926 ft 478 kts 81°
2026-05-07 07:50 37.53301 127.66307 20487 ft 484 kts 80°
2026-05-07 07:50 37.53950 127.70503 21087 ft 490 kts 80°
2026-05-07 07:50 37.54611 127.74675 21661 ft 495 kts 80°
2026-05-07 07:50 37.55297 127.78968 22310 ft 500 kts 80°
2026-05-07 07:51 37.55989 127.83308 22952 ft 507 kts 80°
2026-05-07 07:51 37.56688 127.87701 23486 ft 514 kts 80°
2026-05-07 07:51 37.57390 127.92143 24031 ft 519 kts 80°
2026-05-07 07:51 37.58095 127.96622 24604 ft 524 kts 81°
2026-05-07 07:52 37.58804 128.01137 25275 ft 527 kts 81°
2026-05-07 07:52 37.59506 128.05638 25876 ft 531 kts 81°
2026-05-07 07:52 37.60222 128.10243 26476 ft 537 kts 81°
2026-05-07 07:52 37.60940 128.14893 27081 ft 541 kts 81°
2026-05-07 07:53 37.61661 128.19595 27636 ft 547 kts 81°
2026-05-07 07:53 37.62387 128.24327 28294 ft 550 kts 81°
2026-05-07 07:53 37.63114 128.29080 28832 ft 555 kts 81°
2026-05-07 07:53 37.63840 128.33834 29375 ft 560 kts 81°
2026-05-07 07:54 37.64591 128.38740 29945 ft 564 kts 81°
2026-05-07 07:54 37.65337 128.43617 30413 ft 567 kts 81°
2026-05-07 07:54 37.66081 128.48496 30964 ft 567 kts 81°
2026-05-07 07:54 37.66831 128.53405 31537 ft 567 kts 81°
2026-05-07 07:55 37.67563 128.58230 32065 ft 566 kts 81°
2026-05-07 07:55 37.68290 128.63121 32605 ft 566 kts 81°
2026-05-07 07:55 37.69011 128.68014 33054 ft 567 kts 81°
2026-05-07 07:55 37.69721 128.72909 33581 ft 566 kts 83°
2026-05-07 07:56 37.70166 128.77835 33936 ft 562 kts 90°
2026-05-07 07:56 37.70277 128.82773 34296 ft 559 kts 94°
2026-05-07 07:56 37.70207 128.87658 34649 ft 558 kts 96°
2026-05-07 07:56 37.70069 128.92577 34835 ft 557 kts 97°
2026-05-07 07:57 37.69925 128.97440 34826 ft 564 kts 96°
2026-05-07 07:57 37.69742 129.07372 34818 ft 565 kts 95°
2026-05-07 07:58 37.69613 129.17308 34811 ft 565 kts 95°
2026-05-07 07:58 37.69488 129.27219 34802 ft 564 kts 95°
2026-05-07 07:59 37.69371 129.35467 34771 ft 564 kts 95°
2026-05-07 07:59 37.69219 129.45371 34795 ft 562 kts 95°
2026-05-07 08:00 37.69056 129.55230 34797 ft 562 kts 95°
2026-05-07 08:00 37.68893 129.65125 34803 ft 562 kts 95°
2026-05-07 08:01 37.68704 129.74977 34808 ft 561 kts 95°
2026-05-07 08:01 37.68499 129.84845 34800 ft 560 kts 95°
2026-05-07 08:02 37.68300 129.94683 34793 ft 560 kts 95°
2026-05-07 08:02 37.68101 130.04528 34803 ft 560 kts 95°
2026-05-07 08:03 37.67899 130.14290 34794 ft 559 kts 95°
2026-05-07 08:03 37.67689 130.24109 34801 ft 558 kts 95°
2026-05-07 08:04 37.67457 130.33911 34810 ft 558 kts 96°
2026-05-07 08:04 37.67218 130.43701 34779 ft 557 kts 95°
2026-05-07 08:05 37.66984 130.53392 34811 ft 554 kts 95°
2026-05-07 08:05 37.66742 130.63102 34820 ft 553 kts 96°
2026-05-07 08:06 37.66492 130.72787 34820 ft 553 kts 96°
2026-05-07 08:06 37.66234 130.82518 34805 ft 554 kts 95°
2026-05-07 08:07 37.65968 130.92213 34830 ft 552 kts 96°
2026-05-07 08:07 37.65695 131.01917 34827 ft 552 kts 96°
2026-05-07 08:08 37.65416 131.11561 34832 ft 552 kts 96°
2026-05-07 08:08 37.65127 131.21243 34823 ft 551 kts 96°
2026-05-07 08:09 37.64827 131.30893 34827 ft 549 kts 96°
2026-05-07 08:09 37.64493 131.40482 34829 ft 549 kts 96°
2026-05-07 08:10 37.64160 131.50109 34844 ft 549 kts 96°
2026-05-07 08:10 37.63906 131.59748 34841 ft 550 kts 94°
2026-05-07 08:11 37.63929 131.69406 34840 ft 551 kts 92°
2026-05-07 08:11 37.64027 131.79037 34831 ft 551 kts 92°
2026-05-07 08:12 37.64099 131.88751 34841 ft 550 kts 92°
2026-05-07 08:12 37.64144 131.98328 34834 ft 548 kts 93°
2026-05-07 08:13 37.64176 132.07950 34843 ft 548 kts 93°
2026-05-07 08:13 37.64201 132.17571 34850 ft 548 kts 93°
2026-05-07 08:14 37.64219 132.27193 34854 ft 547 kts 93°
2026-05-07 08:14 37.64231 132.36759 34831 ft 547 kts 93°
2026-05-07 08:15 37.64236 132.46330 34848 ft 544 kts 93°
2026-05-07 08:15 37.64233 132.55893 34850 ft 544 kts 93°
2026-05-07 08:16 37.64215 132.65453 34858 ft 545 kts 92°
2026-05-07 08:16 37.64651 132.75036 34860 ft 547 kts 87°
2026-05-07 08:17 37.65422 132.84577 34857 ft 545 kts 86°
2026-05-07 08:17 37.66191 132.94012 34859 ft 544 kts 87°
2026-05-07 08:18 37.66912 133.03563 34867 ft 544 kts 87°
2026-05-07 08:18 37.67601 133.13081 34867 ft 544 kts 87°
2026-05-07 08:19 37.68290 133.22590 34845 ft 544 kts 87°
2026-05-07 08:19 37.68970 133.32031 34869 ft 542 kts 87°
2026-05-07 08:20 37.69646 133.41515 34866 ft 541 kts 88°
2026-05-07 08:20 37.70314 133.50994 34872 ft 540 kts 88°
2026-05-07 08:21 37.70967 133.60404 34875 ft 540 kts 88°
2026-05-07 08:21 37.71622 133.69882 34860 ft 540 kts 88°
2026-05-07 08:22 37.72244 133.79330 34883 ft 538 kts 88°
2026-05-07 08:22 37.72851 133.88767 34876 ft 538 kts 88°
2026-05-07 08:23 37.73467 133.98149 34877 ft 539 kts 88°
2026-05-07 08:23 37.74081 134.07593 34879 ft 538 kts 88°
2026-05-07 08:24 37.74692 134.17058 34858 ft 539 kts 88°
2026-05-07 08:24 37.75284 134.26421 34881 ft 537 kts 88°
2026-05-07 08:25 37.75875 134.35844 34880 ft 537 kts 88°
2026-05-07 08:25 37.76459 134.45280 34885 ft 536 kts 88°
2026-05-07 08:26 37.77311 134.59415 34886 ft 539 kts 88°
2026-05-07 08:26 37.77874 134.68808 34884 ft 539 kts 88°
2026-05-07 08:27 37.78426 134.78271 34888 ft 538 kts 89°
2026-05-07 08:27 37.78939 134.87671 34888 ft 538 kts 89°
2026-05-07 08:28 37.79465 134.97121 34889 ft 539 kts 89°
2026-05-07 08:28 37.80001 135.06592 34892 ft 539 kts 89°
2026-05-07 08:29 37.80525 135.16063 34886 ft 538 kts 89°
2026-05-07 08:29 37.81043 135.25466 34892 ft 538 kts 89°
2026-05-07 08:30 37.81560 135.34934 34894 ft 538 kts 89°
2026-05-07 08:30 37.82059 135.44349 34897 ft 538 kts 89°
2026-05-07 08:31 37.82561 135.53817 34896 ft 538 kts 89°
2026-05-07 08:31 37.83045 135.63223 34895 ft 538 kts 89°
2026-05-07 08:32 37.83525 135.72707 34901 ft 539 kts 89°
2026-05-07 08:32 37.83996 135.82130 34905 ft 539 kts 89°
2026-05-07 08:33 37.84424 135.91604 34905 ft 538 kts 89°
2026-05-07 08:33 37.84854 136.01074 34903 ft 538 kts 89°
2026-05-07 08:34 37.85315 136.10497 34907 ft 538 kts 89°
2026-05-07 08:34 37.85766 136.19958 34905 ft 538 kts 89°
2026-05-07 08:35 37.86199 136.29435 34901 ft 538 kts 90°
2026-05-07 08:35 37.86613 136.38909 34903 ft 538 kts 90°
2026-05-07 08:36 37.87041 136.48393 34903 ft 540 kts 90°
2026-05-07 08:36 37.87442 136.57829 34901 ft 539 kts 90°
2026-05-07 08:37 37.87837 136.67296 34907 ft 538 kts 90°
2026-05-07 08:37 37.88246 136.76760 34903 ft 538 kts 90°
2026-05-07 08:38 37.88641 136.86225 34907 ft 538 kts 90°
2026-05-07 08:38 37.89008 136.95624 34910 ft 538 kts 90°
2026-05-07 08:39 37.89284 137.03496 34890 ft 538 kts 90°
2026-05-07 08:39 37.89641 137.12943 34907 ft 536 kts 90°
2026-05-07 08:40 37.90000 137.22347 34920 ft 535 kts 90°
2026-05-07 08:40 37.90368 137.31790 34918 ft 537 kts 90°
2026-05-07 08:41 37.90723 137.41215 34914 ft 534 kts 90°
2026-05-07 08:41 37.91066 137.50629 34898 ft 535 kts 91°
2026-05-07 08:42 37.91426 137.59994 34920 ft 536 kts 90°
2026-05-07 08:42 37.91757 137.69462 34923 ft 539 kts 90°
2026-05-07 08:43 37.92071 137.78926 34920 ft 537 kts 90°
2026-05-07 08:43 37.92417 137.88385 34920 ft 538 kts 90°
2026-05-07 08:44 37.92741 137.97862 34902 ft 536 kts 91°
2026-05-07 08:44 37.93009 138.07248 34926 ft 538 kts 91°
2026-05-07 08:45 37.93277 138.16723 34929 ft 539 kts 90°
2026-05-07 08:45 37.93586 138.26240 34928 ft 539 kts 91°
2026-05-07 08:46 37.93866 138.35733 34925 ft 540 kts 91°
2026-05-07 08:46 37.94135 138.45242 34925 ft 539 kts 91°
2026-05-07 08:47 37.94437 138.54685 34922 ft 538 kts 91°
2026-05-07 08:47 37.94701 138.64159 34925 ft 538 kts 92°
2026-05-07 08:48 37.94949 138.73657 34926 ft 538 kts 92°
2026-05-07 08:48 37.95196 138.83145 34917 ft 539 kts 92°
2026-05-07 08:49 37.95446 138.92651 34913 ft 539 kts 92°
2026-05-07 08:49 37.95673 139.02072 34909 ft 538 kts 92°
2026-05-07 08:50 37.95958 139.11555 34912 ft 540 kts 89°
2026-05-07 08:50 37.96786 139.21048 34911 ft 542 kts 85°
2026-05-07 08:51 37.97860 139.30511 34925 ft 543 kts 84°
2026-05-07 08:51 37.98917 139.40000 34931 ft 542 kts 85°
2026-05-07 08:52 37.99920 139.49491 34925 ft 542 kts 85°
2026-05-07 08:52 38.00897 139.58913 34916 ft 541 kts 85°
2026-05-07 08:53 38.01874 139.68397 34921 ft 541 kts 85°
2026-05-07 08:53 38.02839 139.77870 34923 ft 541 kts 85°
2026-05-07 08:54 38.03782 139.87357 34918 ft 541 kts 85°
2026-05-07 08:54 38.04729 139.96836 34917 ft 541 kts 85°
2026-05-07 08:55 38.05678 140.06307 34904 ft 541 kts 85°
2026-05-07 08:55 38.06616 140.15785 34898 ft 540 kts 85°
2026-05-07 08:56 38.07544 140.25240 34901 ft 539 kts 85°
2026-05-07 08:56 38.08469 140.34694 34898 ft 539 kts 85°
2026-05-07 08:57 38.09382 140.44157 34898 ft 540 kts 85°
2026-05-07 08:57 38.10287 140.53615 34897 ft 540 kts 85°
2026-05-07 08:58 38.11189 140.63096 34891 ft 541 kts 85°
2026-05-07 08:58 38.12082 140.72585 34888 ft 540 kts 85°
2026-05-07 08:59 38.12953 140.82013 34882 ft 539 kts 85°
2026-05-07 08:59 38.13708 140.91491 34880 ft 537 kts 91°
2026-05-07 09:00 38.13174 141.00893 34884 ft 532 kts 102°
2026-05-07 09:00 38.11975 141.10167 34889 ft 531 kts 103°
2026-05-07 09:01 38.10800 141.19442 34895 ft 532 kts 102°
2026-05-07 09:01 38.09718 141.28755 34898 ft 533 kts 102°
2026-05-07 09:02 38.08665 141.38078 34903 ft 533 kts 102°
2026-05-07 09:02 38.07609 141.47333 34904 ft 533 kts 102°
2026-05-07 09:03 38.06533 141.56656 34896 ft 532 kts 102°
2026-05-07 09:03 38.05449 141.65956 34910 ft 530 kts 102°
2026-05-07 09:04 38.04365 141.75216 34908 ft 530 kts 102°
2026-05-07 09:04 38.03272 141.84465 34914 ft 530 kts 102°
2026-05-07 09:05 38.02177 141.93661 34897 ft 530 kts 102°
2026-05-07 09:05 38.01054 142.02860 34926 ft 527 kts 102°
2026-05-07 09:06 37.99917 142.12046 34920 ft 527 kts 102°
2026-05-07 09:06 37.98790 142.21228 34914 ft 527 kts 102°
2026-05-07 09:07 37.97657 142.30418 34900 ft 527 kts 102°
2026-05-07 09:07 37.96521 142.39595 34928 ft 526 kts 102°
2026-05-07 09:08 37.95386 142.48747 34919 ft 525 kts 102°
2026-05-07 09:08 37.94431 142.56357 34925 ft 526 kts 102°